Time,TemperatureF,DewpointF,PressureIn,WindDirection,WindDirectionDegrees,WindSpeedMPH,WindSpeedGustMPH,Humidity,HourlyPrecipIn,Conditions,Clouds,dailyrainin,SolarRadiationWatts/m^2,SoftwareType,DateUTC
2013-09-19 00:00:00,59.8,55.9,30.18,NNE,23,0.0,0.0,87,0.00,BKN,SCT,0.00,0.0,WeatherDisplay:10.37,2013-09-19 04:00:00,
2013-09-19 00:05:00,59.6,55.7,30.18,NNE,23,0.0,0.0,87,0.00,BKN,SCT,0.00,0.0,WeatherDisplay:10.37,2013-09-19 04:05:00,
2013-09-19 00:10:00,59.4,55.5,30.18,NNE,23,0.0,0.0,87,0.00,BKN,SCT,0.00,0.0,WeatherDisplay:10.37,2013-09-19 04:10:00,
2013-09-19 00:15:00,59.2,55.6,30.18,NNE,23,0.0,0.0,88,0.00,BKN,SCT,0.00,0.0,WeatherDisplay:10.37,2013-09-19 04:15:00,
2013-09-19 00:20:00,59.0,55.4,30.18,NNE,23,0.0,0.0,88,0.00,BKN,SCT,0.00,0.0,WeatherDisplay:10.37,2013-09-19 04:20:00,
2013-09-19 00:25:00,58.9,55.4,30.18,NNE,23,0.0,0.0,88,0.00,BKN,SCT,0.00,0.0,WeatherDisplay:10.37,2013-09-19 04:25:00,
2013-09-19 00:30:00,58.7,55.2,30.18,NNE,23,0.0,0.0,88,0.00,BKN,SCT,0.00,0.0,WeatherDisplay:10.37,2013-09-19 04:30:00,
2013-09-19 00:35:00,58.4,54.9,30.18,NNE,23,0.0,0.0,88,0.00,BKN,SCT,0.00,0.0,WeatherDisplay:10.37,2013-09-19 04:35:00,
2013-09-19 00:40:00,58.1,54.6,30.18,NNE,23,0.0,0.0,88,0.00,BKN,SCT,0.00,0.0,WeatherDisplay:10.37,2013-09-19 04:40:00,
2013-09-19 00:45:00,58.1,54.9,30.18,NNE,23,0.0,0.0,89,0.00,BKN,SCT,0.00,0.0,WeatherDisplay:10.37,2013-09-19 04:45:00,
2013-09-19 00:50:00,58.1,54.9,30.17,NNE,23,0.0,0.0,89,0.00,BKN,SCT,0.00,0.0,WeatherDisplay:10.37,2013-09-19 04:50:00,
2013-09-19 00:55:00,58.1,54.9,30.17,NNE,23,0.0,0.0,89,0.00,BKN,SCT,0.00,0.0,WeatherDisplay:10.37,2013-09-19 04:55:00,
2013-09-19 01:00:00,57.9,54.7,30.17,NNE,23,0.0,0.0,89,0.00,BKN,SCT,0.00,0.0,WeatherDisplay:10.37,2013-09-19 05:00:00,
2013-09-19 01:05:00,57.7,54.5,30.17,NNE,23,0.0,0.0,89,0.00,BKN,SCT,0.00,0.0,WeatherDisplay:10.37,2013-09-19 05:05:00,
2013-09-19 01:10:00,57.6,54.4,30.17,NNE,23,0.0,0.0,89,0.00,BKN,SCT,0.00,0.0,WeatherDisplay:10.37,2013-09-19 05:10:00,
2013-09-19 01:15:00,57.5,54.3,30.17,NNE,23,0.0,0.0,89,0.00,BKN,SCT,0.00,0.0,WeatherDisplay:10.37,2013-09-19 05:15:00,
2013-09-19 01:20:00,57.4,54.2,30.17,NNE,23,0.0,0.0,89,0.00,BKN,SCT,0.00,0.0,WeatherDisplay:10.37,2013-09-19 05:20:00,
2013-09-19 01:25:00,57.3,54.1,30.17,NNE,23,0.0,0.0,89,0.00,BKN,SCT,0.00,0.0,WeatherDisplay:10.37,2013-09-19 05:25:00,
2013-09-19 01:30:00,57.2,54.0,30.17,NNE,23,0.0,0.0,89,0.00,BKN,SCT,0.00,0.0,WeatherDisplay:10.37,2013-09-19 05:30:00,
2013-09-19 01:35:00,57.1,53.9,30.17,NNE,23,0.0,0.0,89,0.00,BKN,SCT,0.00,0.0,WeatherDisplay:10.37,2013-09-19 05:35:00,
2013-09-19 01:40:00,57.0,53.8,30.16,NNE,23,0.0,0.0,89,0.00,BKN,SCT,0.00,0.0,WeatherDisplay:10.37,2013-09-19 05:40:00,
2013-09-19 01:45:00,56.9,54.0,30.16,NNE,23,0.0,0.0,90,0.00,BKN,SCT,0.00,0.0,WeatherDisplay:10.37,2013-09-19 05:45:00,
2013-09-19 01:50:00,56.9,54.0,30.16,NNE,23,0.0,0.0,90,0.00,BKN,SCT,0.00,0.0,WeatherDisplay:10.37,2013-09-19 05:50:00,
2013-09-19 01:55:00,56.8,53.6,30.16,NNE,23,0.0,0.0,89,0.00,BKN,SCT,0.00,0.0,WeatherDisplay:10.37,2013-09-19 05:55:00,
2013-09-19 02:00:00,56.7,53.8,30.16,NNE,23,0.0,0.0,90,0.00,BKN,SCT,0.00,0.0,WeatherDisplay:10.37,2013-09-19 06:00:00,
2013-09-19 02:05:00,56.6,53.7,30.16,NNE,23,0.0,0.0,90,0.00,BKN,SCT,0.00,0.0,WeatherDisplay:10.37,2013-09-19 06:05:00,
2013-09-19 02:10:00,56.6,53.7,30.16,NNE,23,0.0,0.0,90,0.00,BKN,SCT,0.00,0.0,WeatherDisplay:10.37,2013-09-19 06:10:00,
2013-09-19 02:15:00,56.5,53.6,30.16,NNE,23,0.0,0.0,90,0.00,BKN,SCT,0.00,0.0,WeatherDisplay:10.37,2013-09-19 06:15:00,
2013-09-19 02:20:00,56.4,53.5,30.16,NNE,23,0.0,0.0,90,0.00,BKN,SCT,0.00,0.0,WeatherDisplay:10.37,2013-09-19 06:20:00,
2013-09-19 02:25:00,56.3,53.4,30.17,NNE,23,0.0,0.0,90,0.00,BKN,SCT,0.00,0.0,WeatherDisplay:10.37,2013-09-19 06:25:00,
2013-09-19 02:30:00,56.2,53.3,30.16,NNE,23,0.0,0.0,90,0.00,BKN,SCT,0.00,0.0,WeatherDisplay:10.37,2013-09-19 06:30:00,
2013-09-19 02:35:00,56.1,53.2,30.17,NNE,23,0.0,0.0,90,0.00,BKN,SCT,0.00,0.0,WeatherDisplay:10.37,2013-09-19 06:35:00,
2013-09-19 02:40:00,56.1,53.2,30.17,NNE,23,0.0,0.0,90,0.00,BKN,SCT,0.00,0.0,WeatherDisplay:10.37,2013-09-19 06:40:00,
2013-09-19 02:45:00,56.0,53.1,30.17,NNE,23,0.0,0.0,90,0.00,BKN,SCT,0.00,0.0,WeatherDisplay:10.37,2013-09-19 06:45:00,
2013-09-19 02:50:00,56.0,53.1,30.17,NNE,23,0.0,0.0,90,0.00,BKN,SCT,0.00,0.0,WeatherDisplay:10.37,2013-09-19 06:50:00,
2013-09-19 02:55:00,56.1,53.2,30.17,NNE,23,0.0,0.0,90,0.00,BKN,SCT,0.00,0.0,WeatherDisplay:10.37,2013-09-19 06:55:00,
2013-09-19 03:00:00,56.1,53.2,30.17,NNE,23,0.0,0.0,90,0.00,BKN,SCT,0.00,0.0,WeatherDisplay:10.37,2013-09-19 07:00:00,
2013-09-19 03:05:00,56.2,53.3,30.17,NNE,23,0.0,0.0,90,0.00,BKN,SCT,0.00,0.0,WeatherDisplay:10.37,2013-09-19 07:05:00,
2013-09-19 03:10:00,56.3,53.4,30.16,NNE,23,0.0,0.0,90,0.00,BKN,SCT,0.00,0.0,WeatherDisplay:10.37,2013-09-19 07:10:00,
2013-09-19 03:15:00,56.4,53.5,30.16,NNE,23,0.0,0.0,90,0.00,BKN,SCT,0.00,0.0,WeatherDisplay:10.37,2013-09-19 07:15:00,
2013-09-19 03:20:00,56.5,53.9,30.16,NNE,23,0.0,0.0,91,0.00,BKN,SCT,0.00,0.0,WeatherDisplay:10.37,2013-09-19 07:20:00,
2013-09-19 03:25:00,56.7,54.1,30.16,NNE,23,0.0,0.0,91,0.00,BKN,SCT,0.00,0.0,WeatherDisplay:10.37,2013-09-19 07:25:00,
2013-09-19 03:30:00,56.9,54.3,30.16,NNE,23,0.0,0.0,91,0.00,BKN,SCT,0.00,0.0,WeatherDisplay:10.37,2013-09-19 07:30:00,
2013-09-19 03:35:00,57.0,54.4,30.16,NNE,23,0.0,0.0,91,0.00,BKN,SCT,0.00,0.0,WeatherDisplay:10.37,2013-09-19 07:35:00,
2013-09-19 03:40:00,57.2,54.6,30.16,NNE,23,0.0,0.0,91,0.00,BKN,SCT,0.00,0.0,WeatherDisplay:10.37,2013-09-19 07:40:00,
2013-09-19 03:45:00,57.3,54.7,30.16,NNE,23,0.0,0.0,91,0.00,BKN,SCT,0.00,0.0,WeatherDisplay:10.37,2013-09-19 07:45:00,
2013-09-19 03:50:00,57.5,54.9,30.16,NNE,23,0.0,0.0,91,0.00,BKN,SCT,0.00,0.0,WeatherDisplay:10.37,2013-09-19 07:50:00,
2013-09-19 03:55:00,57.7,55.1,30.16,NNE,23,0.0,0.0,91,0.00,BKN,SCT,0.00,0.0,WeatherDisplay:10.37,2013-09-19 07:55:00,
2013-09-19 04:00:00,57.8,55.2,30.16,NNE,23,0.0,0.0,91,0.00,BKN,SCT,0.00,0.0,WeatherDisplay:10.37,2013-09-19 08:00:00,
2013-09-19 04:05:00,58.0,55.4,30.16,NNE,23,0.0,0.0,91,0.00,BKN,SCT,0.00,0.0,WeatherDisplay:10.37,2013-09-19 08:05:00,
2013-09-19 04:10:00,58.1,55.5,30.15,NNE,23,0.0,0.0,91,0.00,BKN,SCT,0.00,0.0,WeatherDisplay:10.37,2013-09-19 08:10:00,
2013-09-19 04:15:00,58.1,55.5,30.16,NNE,23,0.0,0.0,91,0.00,BKN,SCT,0.00,0.0,WeatherDisplay:10.37,2013-09-19 08:15:00,
2013-09-19 04:20:00,58.1,55.5,30.15,NNE,23,0.0,0.0,91,0.00,BKN,SCT,0.00,0.0,WeatherDisplay:10.37,2013-09-19 08:20:00,
2013-09-19 04:25:00,58.1,55.5,30.16,NNE,23,0.0,0.0,91,0.00,BKN,SCT,0.00,0.0,WeatherDisplay:10.37,2013-09-19 08:25:00,
2013-09-19 04:30:00,58.1,55.5,30.15,NNE,23,0.0,0.0,91,0.00,BKN,SCT,0.00,0.0,WeatherDisplay:10.37,2013-09-19 08:30:00,
2013-09-19 04:35:00,58.4,55.8,30.15,NNE,23,0.0,0.0,91,0.00,BKN,SCT,0.00,0.0,WeatherDisplay:10.37,2013-09-19 08:35:00,
2013-09-19 04:40:00,58.6,56.0,30.15,NNE,23,0.0,0.0,91,0.00,BKN,SCT,0.00,0.0,WeatherDisplay:10.37,2013-09-19 08:40:00,
2013-09-19 04:45:00,58.7,56.1,30.15,NNE,23,0.0,0.0,91,0.00,BKN,SCT,0.00,0.0,WeatherDisplay:10.37,2013-09-19 08:45:00,
2013-09-19 04:50:00,58.7,56.1,30.16,NNE,23,0.0,0.0,91,0.00,BKN,SCT,0.00,0.0,WeatherDisplay:10.37,2013-09-19 08:50:00,
2013-09-19 04:55:00,58.8,56.2,30.16,NNE,23,0.0,0.0,91,0.00,BKN,SCT,0.00,0.0,WeatherDisplay:10.37,2013-09-19 08:55:00,
2013-09-19 05:00:00,58.9,56.3,30.16,NNE,23,0.0,0.0,91,0.00,BKN,SCT,0.00,0.0,WeatherDisplay:10.37,2013-09-19 09:00:00,
2013-09-19 05:05:00,58.9,56.3,30.15,NNE,23,0.0,0.0,91,0.00,BKN,SCT,0.00,0.0,WeatherDisplay:10.37,2013-09-19 09:05:00,
2013-09-19 05:10:00,59.0,56.4,30.15,NNE,23,0.0,0.0,91,0.00,BKN,SCT,0.00,0.0,WeatherDisplay:10.37,2013-09-19 09:10:00,
2013-09-19 05:15:00,59.0,56.4,30.16,NNE,23,0.0,0.0,91,0.00,BKN,SCT,0.00,0.0,WeatherDisplay:10.37,2013-09-19 09:15:00,
2013-09-19 05:20:00,59.0,56.4,30.15,NNE,23,0.0,0.0,91,0.00,BKN,SCT,0.00,0.0,WeatherDisplay:10.37,2013-09-19 09:20:00,
2013-09-19 05:25:00,59.0,56.4,30.15,NNE,23,0.0,0.0,91,0.00,BKN,SCT,0.00,0.0,WeatherDisplay:10.37,2013-09-19 09:25:00,
2013-09-19 05:30:00,59.0,56.4,30.15,NNE,23,0.0,0.0,91,0.00,BKN,SCT,0.00,0.0,WeatherDisplay:10.37,2013-09-19 09:30:00,
2013-09-19 05:35:00,59.0,56.4,30.15,NNE,23,0.0,0.0,91,0.00,BKN,SCT,0.00,0.0,WeatherDisplay:10.37,2013-09-19 09:35:00,
2013-09-19 05:40:00,59.1,56.5,30.15,NNE,23,0.0,0.0,91,0.00,BKN,SCT,0.00,0.0,WeatherDisplay:10.37,2013-09-19 09:40:00,
2013-09-19 05:45:00,59.1,56.5,30.15,NNE,23,0.0,0.0,91,0.00,BKN,SCT,0.00,0.0,WeatherDisplay:10.37,2013-09-19 09:45:00,
2013-09-19 05:50:00,59.1,56.5,30.15,NNE,23,0.0,0.0,91,0.00,BKN,SCT,0.00,0.0,WeatherDisplay:10.37,2013-09-19 09:50:00,
2013-09-19 05:55:00,59.2,56.9,30.15,NNE,23,0.0,0.0,92,0.00,BKN,SCT,0.00,0.0,WeatherDisplay:10.37,2013-09-19 09:55:00,
2013-09-19 06:00:00,59.2,56.9,30.15,NNE,23,0.0,0.0,92,0.00,BKN,SCT,0.00,0.0,WeatherDisplay:10.37,2013-09-19 10:00:00,
2013-09-19 06:05:00,59.2,56.6,30.15,NNE,23,0.0,0.0,91,0.00,BKN,SCT,0.00,0.0,WeatherDisplay:10.37,2013-09-19 10:05:00,
2013-09-19 06:10:00,59.2,56.6,30.15,NNE,23,0.0,0.0,91,0.00,BKN,SCT,0.00,0.0,WeatherDisplay:10.37,2013-09-19 10:10:00,
2013-09-19 06:15:00,59.2,56.6,30.15,NNE,23,0.0,0.0,91,0.00,BKN,SCT,0.00,0.0,WeatherDisplay:10.37,2013-09-19 10:15:00,
2013-09-19 06:20:00,59.2,56.9,30.15,NNE,23,0.0,0.0,92,0.00,BKN,SCT,0.00,0.0,WeatherDisplay:10.37,2013-09-19 10:20:00,
2013-09-19 06:25:00,59.3,57.0,30.15,NNE,23,0.0,0.0,92,0.00,BKN,SCT,0.00,0.0,WeatherDisplay:10.37,2013-09-19 10:25:00,
2013-09-19 06:30:00,59.3,57.0,30.15,NNE,23,0.0,0.0,92,0.00,BKN,SCT,0.00,0.0,WeatherDisplay:10.37,2013-09-19 10:30:00,
2013-09-19 06:35:00,59.3,57.0,30.15,NNE,23,0.0,0.0,92,0.00,BKN,SCT,0.00,0.0,WeatherDisplay:10.37,2013-09-19 10:35:00,
2013-09-19 06:40:00,59.4,57.1,30.15,NNE,23,0.0,0.0,92,0.00,BKN,SCT,0.00,0.0,WeatherDisplay:10.37,2013-09-19 10:40:00,
2013-09-19 06:45:00,59.4,57.1,30.15,NNE,23,0.0,0.0,92,0.00,BKN,SCT,0.00,0.0,WeatherDisplay:10.37,2013-09-19 10:45:00,
2013-09-19 06:50:00,59.4,57.1,30.15,NNE,23,0.0,0.0,92,0.00,BKN,SCT,0.00,0.0,WeatherDisplay:10.37,2013-09-19 10:50:00,
2013-09-19 06:55:00,59.4,57.1,30.15,NNE,23,0.0,0.0,92,0.00,BKN,SCT,0.00,0.0,WeatherDisplay:10.37,2013-09-19 10:55:00,
2013-09-19 07:00:00,59.4,57.1,30.15,NNE,23,0.0,0.0,92,0.00,BKN,SCT,0.00,0.0,WeatherDisplay:10.37,2013-09-19 11:00:00,
2013-09-19 07:05:00,59.5,57.2,30.16,NNE,23,0.0,0.0,92,0.00,BKN,SCT,0.00,0.0,WeatherDisplay:10.37,2013-09-19 11:05:00,
2013-09-19 07:10:00,59.5,57.2,30.16,NNE,23,0.0,0.0,92,0.00,BKN,SCT,0.00,0.0,WeatherDisplay:10.37,2013-09-19 11:10:00,
2013-09-19 07:15:00,59.6,57.3,30.16,NNE,23,0.0,0.0,92,0.00,BKN,SCT,0.00,0.0,WeatherDisplay:10.37,2013-09-19 11:15:00,
2013-09-19 07:20:00,59.7,57.3,30.16,NNE,23,0.0,0.0,92,0.00,BKN,SCT,0.00,0.0,WeatherDisplay:10.37,2013-09-19 11:20:00,
2013-09-19 07:25:00,59.7,57.4,30.16,NNE,23,0.0,0.0,92,0.00,BKN,SCT,0.00,0.0,WeatherDisplay:10.37,2013-09-19 11:25:00,
2013-09-19 07:30:00,59.7,57.4,30.16,NNE,23,0.0,0.0,92,0.00,BKN,SCT,0.00,5.0,WeatherDisplay:10.37,2013-09-19 11:30:00,
2013-09-19 07:35:00,59.7,57.4,30.16,NNE,23,0.0,0.0,92,0.00,,SCT,0.00,5.0,WeatherDisplay:10.37,2013-09-19 11:35:00,
2013-09-19 07:40:00,59.7,57.4,30.16,NNE,23,0.0,0.0,92,0.00,,SCT,0.00,12.0,WeatherDisplay:10.37,2013-09-19 11:40:00,
2013-09-19 07:45:00,59.8,57.5,30.16,NNE,23,0.0,0.0,92,0.00,,SCT,0.00,14.0,WeatherDisplay:10.37,2013-09-19 11:45:00,
2013-09-19 07:50:00,59.8,57.5,30.16,NNE,23,0.0,0.0,92,0.00,,SCT,0.00,19.0,WeatherDisplay:10.37,2013-09-19 11:50:00,
2013-09-19 07:55:00,59.9,57.6,30.16,NNE,23,0.0,0.0,92,0.00,BKN,SCT,0.00,25.0,WeatherDisplay:10.37,2013-09-19 11:55:00,
2013-09-19 08:00:00,60.0,57.7,30.17,NNE,23,0.0,0.0,92,0.00,BKN,SCT,0.00,28.0,WeatherDisplay:10.37,2013-09-19 12:00:00,
2013-09-19 08:05:00,60.2,57.9,30.17,NNE,23,0.0,0.0,92,0.00,BKN,SCT,0.00,32.0,WeatherDisplay:10.37,2013-09-19 12:05:00,
2013-09-19 08:10:00,60.3,57.9,30.16,NNE,23,0.0,0.0,92,0.00,BKN,SCT,0.00,39.0,WeatherDisplay:10.37,2013-09-19 12:10:00,
2013-09-19 08:15:00,60.3,58.0,30.17,NNE,23,0.0,0.0,92,0.00,BKN,SCT,0.00,39.0,WeatherDisplay:10.37,2013-09-19 12:15:00,
2013-09-19 08:20:00,60.4,58.0,30.17,NNE,22,0.0,0.0,92,0.00,BKN,SCT,0.00,44.0,WeatherDisplay:10.37,2013-09-19 12:20:00,
2013-09-19 08:25:00,60.4,58.1,30.17,NNE,22,0.0,0.0,92,0.00,BKN,SCT,0.00,47.0,WeatherDisplay:10.37,2013-09-19 12:25:00,
2013-09-19 08:30:00,60.4,58.1,30.17,NNE,22,0.0,0.0,92,0.00,BKN,SCT,0.00,49.0,WeatherDisplay:10.37,2013-09-19 12:30:00,
2013-09-19 08:35:00,60.4,58.1,30.16,NNE,22,0.0,0.0,92,0.00,BKN,SCT,0.00,56.0,WeatherDisplay:10.37,2013-09-19 12:35:00,
2013-09-19 08:40:00,60.5,58.2,30.16,NNE,22,0.0,0.0,92,0.00,BKN,SCT,0.00,63.0,WeatherDisplay:10.37,2013-09-19 12:40:00,
2013-09-19 08:45:00,60.5,58.2,30.16,NNE,22,0.0,0.0,92,0.00,BKN,SCT,0.00,83.0,WeatherDisplay:10.37,2013-09-19 12:45:00,
2013-09-19 08:50:00,60.5,58.2,30.16,NNE,22,0.0,0.0,92,0.00,BKN,SCT,0.00,98.0,WeatherDisplay:10.37,2013-09-19 12:50:00,
2013-09-19 08:55:00,60.4,57.8,30.16,NNE,22,0.0,2.0,91,0.00,BKN,SCT,0.00,100.0,WeatherDisplay:10.37,2013-09-19 12:55:00,
2013-09-19 09:00:00,60.3,57.7,30.16,NNE,22,0.0,2.0,91,0.00,BKN,SCT,0.00,111.0,WeatherDisplay:10.37,2013-09-19 13:00:00,
2013-09-19 09:05:00,60.4,57.8,30.16,NNE,22,0.0,2.0,91,0.00,BKN,SCT,0.00,125.0,WeatherDisplay:10.37,2013-09-19 13:05:00,
2013-09-19 09:10:00,60.5,57.9,30.17,NNE,22,0.0,1.0,91,0.00,BKN,SCT,0.00,149.0,WeatherDisplay:10.37,2013-09-19 13:10:00,
2013-09-19 09:20:00,61.0,58.4,30.17,NNE,24,0.0,2.0,91,0.00,SCT,SCT,0.00,202.0,WeatherDisplay:10.37,2013-09-19 13:20:00,
2013-09-19 09:25:00,61.2,58.2,30.17,NNE,25,0.0,2.0,90,0.00,SCT,SCT,0.00,211.0,WeatherDisplay:10.37,2013-09-19 13:25:00,
2013-09-19 09:30:00,61.4,58.1,30.17,NNE,25,0.0,2.0,89,0.00,SCT,SCT,0.00,204.0,WeatherDisplay:10.37,2013-09-19 13:30:00,
2013-09-19 09:35:00,61.6,58.0,30.17,NNE,25,0.0,2.0,88,0.00,SCT,SCT,0.00,241.0,WeatherDisplay:10.37,2013-09-19 13:35:00,
2013-09-19 09:40:00,62.0,58.1,30.17,NNE,25,0.0,1.0,87,0.00,SCT,SCT,0.00,211.0,WeatherDisplay:10.37,2013-09-19 13:40:00,
2013-09-19 09:45:00,62.4,58.2,30.17,NNE,25,1.0,3.0,86,0.00,SCT,SCT,0.00,188.0,WeatherDisplay:10.37,2013-09-19 13:45:00,
2013-09-19 09:50:00,62.8,57.9,30.17,NNE,25,0.0,2.0,84,0.00,BKN,SCT,0.00,192.0,WeatherDisplay:10.37,2013-09-19 13:50:00,
2013-09-19 09:55:00,63.1,57.5,30.18,NNE,25,0.0,2.0,82,0.00,BKN,SCT,0.00,195.0,WeatherDisplay:10.37,2013-09-19 13:55:00,
2013-09-19 10:00:00,63.4,57.8,30.18,NNE,25,0.0,3.0,82,0.00,BKN,SCT,0.00,142.0,WeatherDisplay:10.37,2013-09-19 14:00:00,
2013-09-19 10:05:00,63.7,57.8,30.17,NNE,25,0.0,3.0,81,0.00,BKN,SCT,0.00,149.0,WeatherDisplay:10.37,2013-09-19 14:05:00,
2013-09-19 10:10:00,63.9,58.0,30.18,NNE,25,0.0,3.0,81,0.00,BKN,SCT,0.00,213.0,WeatherDisplay:10.37,2013-09-19 14:10:00,
2013-09-19 10:15:00,64.2,57.9,30.18,NNE,25,1.0,4.0,80,0.00,BKN,SCT,0.00,246.0,WeatherDisplay:10.37,2013-09-19 14:15:00,
2013-09-19 10:20:00,64.5,58.2,30.18,NNE,28,0.0,2.0,80,0.00,BKN,SCT,0.00,188.0,WeatherDisplay:10.37,2013-09-19 14:20:00,
2013-09-19 10:25:00,64.7,58.0,30.18,NE,44,1.0,3.0,79,0.00,BKN,SCT,0.00,130.0,WeatherDisplay:10.37,2013-09-19 14:25:00,
2013-09-19 10:30:00,64.8,57.4,30.18,NE,44,1.0,3.0,77,0.00,BKN,SCT,0.00,142.0,WeatherDisplay:10.37,2013-09-19 14:30:00,
2013-09-19 10:35:00,65.0,57.6,30.18,NE,44,1.0,4.0,77,0.00,BKN,SCT,0.00,181.0,WeatherDisplay:10.37,2013-09-19 14:35:00,
2013-09-19 10:40:00,65.1,57.0,30.18,NE,44,1.0,3.0,75,0.00,BKN,SCT,0.00,241.0,WeatherDisplay:10.37,2013-09-19 14:40:00,
2013-09-19 10:45:00,65.2,57.4,30.18,NE,44,1.0,3.0,76,0.00,BKN,SCT,0.00,244.0,WeatherDisplay:10.37,2013-09-19 14:45:00,
2013-09-19 10:50:00,65.4,56.9,30.18,NE,44,2.0,4.0,74,0.00,BKN,SCT,0.00,200.0,WeatherDisplay:10.37,2013-09-19 14:50:00,
2013-09-19 10:55:00,65.6,57.1,30.18,NE,44,0.0,4.0,74,0.00,BKN,SCT,0.00,171.0,WeatherDisplay:10.37,2013-09-19 14:55:00,
2013-09-19 11:00:00,65.7,57.2,30.18,NE,44,0.0,2.0,74,0.00,BKN,SCT,0.00,179.0,WeatherDisplay:10.37,2013-09-19 15:00:00,
2013-09-19 11:05:00,65.9,57.0,30.18,NE,44,1.0,3.0,73,0.00,BKN,SCT,0.00,229.0,WeatherDisplay:10.37,2013-09-19 15:05:00,
2013-09-19 11:10:00,66.0,57.1,30.18,NE,44,1.0,4.0,73,0.00,BKN,SCT,0.00,269.0,WeatherDisplay:10.37,2013-09-19 15:10:00,
2013-09-19 11:15:00,66.2,57.7,30.17,NE,44,1.0,3.0,74,0.00,BKN,SCT,0.00,320.0,WeatherDisplay:10.37,2013-09-19 15:15:00,
2013-09-19 11:20:00,66.5,57.6,30.17,NE,44,1.0,4.0,73,0.00,BKN,SCT,0.00,304.0,WeatherDisplay:10.37,2013-09-19 15:20:00,
2013-09-19 11:30:00,66.9,57.6,30.17,NE,51,1.0,4.0,72,0.00,BKN,SCT,0.00,311.0,WeatherDisplay:10.37,2013-09-19 15:30:00,
2013-09-19 11:35:00,67.0,58.4,30.17,NE,54,0.0,1.0,74,0.00,BKN,SCT,0.00,353.0,WeatherDisplay:10.37,2013-09-19 15:35:00,
2013-09-19 11:40:00,67.2,58.3,30.18,NE,55,0.0,2.0,73,0.00,BKN,SCT,0.00,338.0,WeatherDisplay:10.37,2013-09-19 15:40:00,
2013-09-19 11:45:00,67.5,58.5,30.17,NE,55,0.0,2.0,73,0.00,BKN,SCT,0.00,330.0,WeatherDisplay:10.37,2013-09-19 15:45:00,
2013-09-19 11:50:00,67.7,58.4,30.17,ENE,57,1.0,3.0,72,0.00,BKN,SCT,0.00,357.0,WeatherDisplay:10.37,2013-09-19 15:50:00,
2013-09-19 12:00:00,68.1,58.0,30.17,East,82,2.0,8.0,70,0.00,BKN,SCT,0.00,360.0,WeatherDisplay:10.37,2013-09-19 16:00:00,
2013-09-19 12:05:00,68.3,58.1,30.17,East,99,1.0,4.0,70,0.00,SCT,SCT,0.00,589.0,WeatherDisplay:10.37,2013-09-19 16:05:00,
2013-09-19 12:15:00,69.0,58.0,30.16,ESE,122,2.0,6.0,68,0.00,SCT,SCT,0.00,417.0,WeatherDisplay:10.37,2013-09-19 16:15:00,
2013-09-19 12:20:00,69.4,58.0,30.16,SSE,154,2.0,6.0,67,0.00,SCT,SCT,0.00,861.0,WeatherDisplay:10.37,2013-09-19 16:20:00,
2013-09-19 12:25:00,69.9,58.5,30.16,SSE,160,1.0,5.0,67,0.00,FEW,SCT,0.00,1009.0,WeatherDisplay:10.37,2013-09-19 16:25:00,
2013-09-19 12:30:00,70.4,58.5,30.16,SSE,164,1.0,5.0,66,0.00,CLR,SCT,0.00,497.0,WeatherDisplay:10.37,2013-09-19 16:30:00,
2013-09-19 12:35:00,70.7,59.6,30.16,SSE,166,2.0,5.0,68,0.00,SCT,SCT,0.00,497.0,WeatherDisplay:10.37,2013-09-19 16:35:00,
2013-09-19 12:40:00,71.0,59.5,30.16,South,171,1.0,6.0,67,0.00,SCT,SCT,0.00,673.0,WeatherDisplay:10.37,2013-09-19 16:40:00,
2013-09-19 12:45:00,71.2,58.8,30.15,South,189,2.0,8.0,65,0.00,SCT,SCT,0.00,350.0,WeatherDisplay:10.37,2013-09-19 16:45:00,
2013-09-19 12:50:00,71.3,59.8,30.15,SSW,196,0.0,4.0,67,0.00,SCT,SCT,0.00,807.0,WeatherDisplay:10.37,2013-09-19 16:50:00,
2013-09-19 12:55:00,71.5,60.0,30.15,SSW,197,0.0,2.0,67,0.00,FEW,SCT,0.00,863.0,WeatherDisplay:10.37,2013-09-19 16:55:00,
2013-09-19 13:00:00,71.9,60.3,30.15,SSW,197,0.0,3.0,67,0.00,SCT,SCT,0.00,573.0,WeatherDisplay:10.37,2013-09-19 17:00:00,
2013-09-19 13:05:00,72.1,60.1,30.15,SSW,197,1.0,4.0,66,0.00,SCT,SCT,0.00,541.0,WeatherDisplay:10.37,2013-09-19 17:05:00,
2013-09-19 13:10:00,72.4,59.9,30.15,SSW,197,0.0,7.0,65,0.00,SCT,SCT,0.00,434.0,WeatherDisplay:10.37,2013-09-19 17:10:00,
2013-09-19 13:15:00,72.4,60.0,30.15,SW,217,1.0,7.0,65,0.00,SCT,SCT,0.00,429.0,WeatherDisplay:10.37,2013-09-19 17:15:00,
2013-09-19 13:20:00,72.4,60.0,30.15,SW,225,1.0,5.0,65,0.00,SCT,SCT,0.00,413.0,WeatherDisplay:10.37,2013-09-19 17:20:00,
2013-09-19 13:25:00,72.5,60.5,30.14,SW,231,0.0,3.0,66,0.00,SCT,SCT,0.00,480.0,WeatherDisplay:10.37,2013-09-19 17:25:00,
2013-09-19 13:30:00,72.5,60.5,30.14,SW,231,0.0,4.0,66,0.00,SCT,SCT,0.00,413.0,WeatherDisplay:10.37,2013-09-19 17:30:00,
2013-09-19 13:35:00,72.5,60.5,30.14,SW,231,0.0,3.0,66,0.00,SCT,SCT,0.00,408.0,WeatherDisplay:10.37,2013-09-19 17:35:00,
2013-09-19 13:40:00,72.6,60.6,30.14,SW,231,0.0,3.0,66,0.00,BKN,SCT,0.00,292.0,WeatherDisplay:10.37,2013-09-19 17:40:00,
2013-09-19 13:45:00,72.6,60.6,30.14,SW,230,0.0,4.0,66,0.00,BKN,SCT,0.00,271.0,WeatherDisplay:10.37,2013-09-19 17:45:00,
2013-09-19 13:50:00,72.6,61.0,30.13,SW,230,0.0,1.0,67,0.00,BKN,SCT,0.00,281.0,WeatherDisplay:10.37,2013-09-19 17:50:00,
2013-09-19 13:55:00,72.7,61.5,30.13,SW,231,0.0,1.0,68,0.00,BKN,SCT,0.00,295.0,WeatherDisplay:10.37,2013-09-19 17:55:00,
2013-09-19 14:00:00,72.7,61.5,30.13,SW,231,0.0,4.0,68,0.00,BKN,SCT,0.00,301.0,WeatherDisplay:10.37,2013-09-19 18:00:00,
2013-09-19 14:05:00,72.7,61.5,30.12,SW,231,0.0,1.0,68,0.00,BKN,SCT,0.00,373.0,WeatherDisplay:10.37,2013-09-19 18:05:00,
2013-09-19 14:10:00,72.8,61.6,30.12,SW,231,1.0,3.0,68,0.00,BKN,SCT,0.00,281.0,WeatherDisplay:10.37,2013-09-19 18:10:00,
2013-09-19 14:15:00,72.8,61.6,30.12,SW,231,1.0,4.0,68,0.00,BKN,SCT,0.00,248.0,WeatherDisplay:10.37,2013-09-19 18:15:00,
2013-09-19 14:20:00,72.6,61.5,30.12,SW,231,0.0,3.0,68,0.00,BKN,SCT,0.00,243.0,WeatherDisplay:10.37,2013-09-19 18:20:00,
2013-09-19 14:25:00,72.6,61.8,30.12,SW,230,0.0,2.0,69,0.00,BKN,SCT,0.00,239.0,WeatherDisplay:10.37,2013-09-19 18:25:00,
2013-09-19 14:30:00,72.6,61.8,30.12,SW,231,0.0,2.0,69,0.00,BKN,SCT,0.00,165.0,WeatherDisplay:10.37,2013-09-19 18:30:00,
2013-09-19 14:35:00,72.5,62.2,30.12,SW,231,0.0,3.0,70,0.00,OVC,SCT,0.00,181.0,WeatherDisplay:10.37,2013-09-19 18:35:00,
2013-09-19 14:40:00,72.4,61.7,30.12,SW,231,1.0,4.0,69,0.00,OVC,SCT,0.00,192.0,WeatherDisplay:10.37,2013-09-19 18:40:00,
2013-09-19 14:50:00,72.2,61.9,30.11,SW,231,0.0,2.0,70,0.00,OVC,SCT,0.00,93.0,WeatherDisplay:10.37,2013-09-19 18:50:00,
2013-09-19 14:55:00,72.0,62.9,30.12,SW,231,0.0,2.0,73,0.00,OVC,SCT,0.00,74.0,WeatherDisplay:10.37,2013-09-19 18:55:00,
2013-09-19 15:00:00,71.9,63.5,30.11,SW,231,0.0,0.0,75,0.01,RA,SCT,0.01,69.0,WeatherDisplay:10.37,2013-09-19 19:00:00,
2013-09-19 15:05:00,71.6,64.4,30.11,SW,231,0.0,1.0,78,0.00,RA,SCT,0.01,84.0,WeatherDisplay:10.37,2013-09-19 19:05:00,
2013-09-19 15:10:00,71.4,64.5,30.11,SW,231,0.0,0.0,79,0.00,OVC,SCT,0.01,120.0,WeatherDisplay:10.37,2013-09-19 19:10:00,
2013-09-19 15:15:00,71.3,65.2,30.11,SW,231,0.0,1.0,81,0.00,OVC,SCT,0.01,169.0,WeatherDisplay:10.37,2013-09-19 19:15:00,
2013-09-19 15:20:00,71.2,65.4,30.10,SW,231,0.0,1.0,82,0.00,OVC,SCT,0.01,193.0,WeatherDisplay:10.37,2013-09-19 19:20:00,
2013-09-19 15:25:00,70.9,64.8,30.10,SW,231,0.0,0.0,81,0.00,BKN,SCT,0.01,269.0,WeatherDisplay:10.37,2013-09-19 19:25:00,
2013-09-19 15:30:00,70.8,64.3,30.10,SW,231,0.0,0.0,80,0.00,BKN,SCT,0.01,399.0,WeatherDisplay:10.37,2013-09-19 19:30:00,
2013-09-19 15:35:00,70.8,64.0,30.10,SW,231,0.0,0.0,79,0.00,SCT,SCT,0.01,371.0,WeatherDisplay:10.37,2013-09-19 19:35:00,
2013-09-19 15:40:00,70.9,64.1,30.10,SW,231,0.0,1.0,79,0.00,SCT,SCT,0.01,318.0,WeatherDisplay:10.37,2013-09-19 19:40:00,
2013-09-19 15:45:00,71.0,64.2,30.10,SW,231,0.0,1.0,79,0.00,BKN,SCT,0.01,248.0,WeatherDisplay:10.37,2013-09-19 19:45:00,
2013-09-19 15:50:00,71.2,63.6,30.10,SW,231,0.0,0.0,77,0.00,BKN,SCT,0.01,200.0,WeatherDisplay:10.37,2013-09-19 19:50:00,
2013-09-19 15:55:00,71.3,63.7,30.09,SW,231,0.0,2.0,77,0.00,BKN,SCT,0.01,209.0,WeatherDisplay:10.37,2013-09-19 19:55:00,
2013-09-19 16:00:00,71.3,63.3,30.09,SW,231,0.0,1.0,76,0.00,BKN,SCT,0.01,253.0,WeatherDisplay:10.37,2013-09-19 20:00:00,
2013-09-19 16:05:00,71.4,63.4,30.09,SW,230,0.0,2.0,76,0.00,BKN,SCT,0.01,302.0,WeatherDisplay:10.37,2013-09-19 20:05:00,
2013-09-19 16:10:00,71.5,63.9,30.09,SW,230,0.0,1.0,77,0.00,BKN,SCT,0.01,257.0,WeatherDisplay:10.37,2013-09-19 20:10:00,
2013-09-19 16:15:00,71.6,64.0,30.09,SW,230,0.0,0.0,77,0.00,SCT,SCT,0.01,220.0,WeatherDisplay:10.37,2013-09-19 20:15:00,
2013-09-19 16:20:00,71.6,63.7,30.09,SW,230,0.0,2.0,76,0.00,BKN,SCT,0.01,213.0,WeatherDisplay:10.37,2013-09-19 20:20:00,
2013-09-19 16:25:00,71.7,63.7,30.09,SW,230,0.0,3.0,76,0.00,BKN,SCT,0.01,204.0,WeatherDisplay:10.37,2013-09-19 20:25:00,
2013-09-19 16:30:00,71.8,64.2,30.09,SW,230,0.0,2.0,77,0.00,BKN,SCT,0.01,162.0,WeatherDisplay:10.37,2013-09-19 20:30:00,
2013-09-19 16:35:00,71.8,64.2,30.09,SW,230,0.0,1.0,77,0.00,BKN,SCT,0.01,113.0,WeatherDisplay:10.37,2013-09-19 20:35:00,
2013-09-19 16:40:00,71.8,64.2,30.09,SW,230,0.0,1.0,77,0.00,BKN,SCT,0.01,107.0,WeatherDisplay:10.37,2013-09-19 20:40:00,
2013-09-19 16:50:00,71.7,64.1,30.09,SW,230,0.0,1.0,77,0.00,OVC,SCT,0.01,76.0,WeatherDisplay:10.37,2013-09-19 20:50:00,
2013-09-19 16:55:00,71.6,64.4,30.09,SW,230,0.0,1.0,78,0.00,OVC,SCT,0.01,63.0,WeatherDisplay:10.37,2013-09-19 20:55:00,
2013-09-19 17:00:00,71.6,64.4,30.09,SW,230,1.0,3.0,78,0.00,OVC,SCT,0.01,54.0,WeatherDisplay:10.37,2013-09-19 21:00:00,
2013-09-19 17:05:00,71.5,64.3,30.09,SW,230,0.0,2.0,78,0.00,OVC,SCT,0.01,46.0,WeatherDisplay:10.37,2013-09-19 21:05:00,
2013-09-19 17:10:00,71.3,64.4,30.09,SW,230,1.0,2.0,79,0.00,OVC,SCT,0.01,49.0,WeatherDisplay:10.37,2013-09-19 21:10:00,
2013-09-19 17:15:00,71.2,64.7,30.09,SW,230,0.0,1.0,80,0.01,RA,SCT,0.02,49.0,WeatherDisplay:10.37,2013-09-19 21:15:00,
2013-09-19 17:20:00,71.1,65.0,30.09,SW,230,0.0,2.0,81,0.00,RA,SCT,0.02,39.0,WeatherDisplay:10.37,2013-09-19 21:20:00,
2013-09-19 17:25:00,71.0,65.2,30.09,SW,229,1.0,3.0,82,0.00,OVC,SCT,0.02,40.0,WeatherDisplay:10.37,2013-09-19 21:25:00,
2013-09-19 17:30:00,70.6,64.9,30.09,SW,229,1.0,3.0,82,0.00,OVC,SCT,0.02,44.0,WeatherDisplay:10.37,2013-09-19 21:30:00,
2013-09-19 17:35:00,70.3,64.9,30.09,SW,228,2.0,3.0,83,0.00,OVC,SCT,0.02,54.0,WeatherDisplay:10.37,2013-09-19 21:35:00,
2013-09-19 17:40:00,69.8,64.8,30.09,SW,223,1.0,4.0,84,0.00,OVC,SCT,0.02,65.0,WeatherDisplay:10.37,2013-09-19 21:40:00,
2013-09-19 17:45:00,69.5,64.4,30.09,SW,217,1.0,3.0,84,0.00,OVC,SCT,0.02,69.0,WeatherDisplay:10.37,2013-09-19 21:45:00,
2013-09-19 17:50:00,69.2,64.5,30.09,SW,214,0.0,3.0,85,0.00,BKN,SCT,0.02,76.0,WeatherDisplay:10.37,2013-09-19 21:50:00,
2013-09-19 17:55:00,69.0,64.3,30.09,SSW,213,1.0,2.0,85,0.00,BKN,SCT,0.02,91.0,WeatherDisplay:10.37,2013-09-19 21:55:00,
2013-09-19 18:00:00,68.8,64.1,30.09,SSW,213,0.0,2.0,85,0.00,BKN,SCT,0.02,91.0,WeatherDisplay:10.37,2013-09-19 22:00:00,
2013-09-19 18:05:00,68.8,64.4,30.09,SSW,213,0.0,2.0,86,0.00,BKN,SCT,0.02,90.0,WeatherDisplay:10.37,2013-09-19 22:05:00,
2013-09-19 18:10:00,68.7,64.3,30.09,SSW,213,1.0,3.0,86,0.00,BKN,SCT,0.02,128.0,WeatherDisplay:10.37,2013-09-19 22:10:00,
2013-09-19 18:15:00,68.7,64.3,30.08,SSW,213,1.0,2.0,86,0.00,SCT,SCT,0.02,121.0,WeatherDisplay:10.37,2013-09-19 22:15:00,
2013-09-19 18:20:00,68.7,64.3,30.08,SSW,205,0.0,3.0,86,0.00,SCT,SCT,0.02,79.0,WeatherDisplay:10.37,2013-09-19 22:20:00,
2013-09-19 18:25:00,68.6,64.2,30.08,SSW,201,1.0,3.0,86,0.00,BKN,SCT,0.02,69.0,WeatherDisplay:10.37,2013-09-19 22:25:00,
2013-09-19 18:30:00,68.6,64.2,30.08,SSW,200,0.0,3.0,86,0.00,SCT,SCT,0.02,76.0,WeatherDisplay:10.37,2013-09-19 22:30:00,
2013-09-19 18:35:00,68.5,64.1,30.08,SSW,200,0.0,3.0,86,0.00,SCT,SCT,0.02,69.0,WeatherDisplay:10.37,2013-09-19 22:35:00,
2013-09-19 18:40:00,68.5,64.2,30.08,SSW,200,0.0,1.0,86,0.00,FEW,SCT,0.02,111.0,WeatherDisplay:10.37,2013-09-19 22:40:00,
2013-09-19 18:45:00,68.6,64.6,30.08,SSW,200,0.0,0.0,87,0.00,CLR,SCT,0.02,102.0,WeatherDisplay:10.37,2013-09-19 22:45:00,
2013-09-19 18:50:00,68.8,64.8,30.08,SSW,200,0.0,1.0,87,0.00,FEW,SCT,0.02,86.0,WeatherDisplay:10.37,2013-09-19 22:50:00,
2013-09-19 18:55:00,68.9,64.9,30.08,SSW,200,0.0,1.0,87,0.00,FEW,SCT,0.02,62.0,WeatherDisplay:10.37,2013-09-19 22:55:00,
2013-09-19 19:00:00,69.0,65.0,30.08,SSW,200,0.0,0.0,87,0.00,SCT,SCT,0.02,49.0,WeatherDisplay:10.37,2013-09-19 23:00:00,
2013-09-19 19:05:00,69.1,64.7,30.08,SSW,200,0.0,1.0,86,0.00,SCT,SCT,0.02,33.0,WeatherDisplay:10.37,2013-09-19 23:05:00,
2013-09-19 19:10:00,69.1,64.4,30.08,SSW,200,0.0,0.0,85,0.00,SCT,SCT,0.02,18.0,WeatherDisplay:10.37,2013-09-19 23:10:00,
2013-09-19 19:15:00,69.1,64.4,30.08,SSW,200,0.0,0.0,85,0.00,SCT,SCT,0.02,9.0,WeatherDisplay:10.37,2013-09-19 23:15:00,
2013-09-19 19:20:00,69.0,64.3,30.08,SSW,200,0.0,0.0,85,0.00,SCT,SCT,0.02,9.0,WeatherDisplay:10.37,2013-09-19 23:20:00,
2013-09-19 19:25:00,69.0,64.3,30.08,SSW,200,0.0,0.0,85,0.00,SCT,SCT,0.02,0.0,WeatherDisplay:10.37,2013-09-19 23:25:00,
2013-09-19 19:30:00,68.9,64.2,30.08,SSW,200,0.0,0.0,85,0.00,SCT,SCT,0.02,0.0,WeatherDisplay:10.37,2013-09-19 23:30:00,
2013-09-19 19:35:00,68.8,64.1,30.08,SSW,200,0.0,0.0,85,0.00,SCT,SCT,0.02,0.0,WeatherDisplay:10.37,2013-09-19 23:35:00,
2013-09-19 19:40:00,68.8,64.1,30.08,SSW,200,0.0,0.0,85,0.00,SCT,SCT,0.02,0.0,WeatherDisplay:10.37,2013-09-19 23:40:00,
2013-09-19 19:45:00,68.6,63.9,30.08,SSW,200,0.0,0.0,85,0.00,SCT,SCT,0.02,0.0,WeatherDisplay:10.37,2013-09-19 23:45:00,
2013-09-19 19:50:00,68.5,64.1,30.08,SSW,200,0.0,0.0,86,0.00,SCT,SCT,0.02,0.0,WeatherDisplay:10.37,2013-09-19 23:50:00,
2013-09-19 19:55:00,68.4,64.0,30.08,SSW,200,0.0,0.0,86,0.00,SCT,SCT,0.02,0.0,WeatherDisplay:10.37,2013-09-19 23:55:00,
2013-09-19 20:00:00,68.3,63.9,30.08,SSW,200,0.0,0.0,86,0.00,SCT,SCT,0.02,0.0,WeatherDisplay:10.37,2013-09-20 00:00:00,
2013-09-19 20:05:00,68.1,63.8,30.07,SSW,200,0.0,0.0,86,0.00,SCT,SCT,0.02,0.0,WeatherDisplay:10.37,2013-09-20 00:05:00,
2013-09-19 20:10:00,68.0,64.0,30.07,SSW,200,0.0,0.0,87,0.00,SCT,SCT,0.02,0.0,WeatherDisplay:10.37,2013-09-20 00:10:00,
2013-09-19 20:15:00,67.9,63.9,30.08,SSW,200,0.0,0.0,87,0.00,SCT,SCT,0.02,0.0,WeatherDisplay:10.37,2013-09-20 00:15:00,
2013-09-19 20:20:00,67.7,63.7,30.07,SSW,200,0.0,0.0,87,0.00,SCT,SCT,0.02,0.0,WeatherDisplay:10.37,2013-09-20 00:20:00,
2013-09-19 20:30:00,67.4,63.4,30.07,SSW,200,0.0,0.0,87,0.00,SCT,SCT,0.02,0.0,WeatherDisplay:10.37,2013-09-20 00:30:00,
2013-09-19 20:35:00,67.2,63.2,30.07,SSW,199,0.0,0.0,87,0.00,SCT,SCT,0.02,0.0,WeatherDisplay:10.37,2013-09-20 00:35:00,
2013-09-19 20:40:00,67.0,63.0,30.08,SSW,200,0.0,0.0,87,0.00,SCT,SCT,0.02,0.0,WeatherDisplay:10.37,2013-09-20 00:40:00,
2013-09-19 20:45:00,66.7,62.4,30.08,SSW,200,0.0,0.0,86,0.00,SCT,SCT,0.02,0.0,WeatherDisplay:10.37,2013-09-20 00:45:00,
2013-09-19 20:50:00,66.4,62.4,30.08,SSW,200,0.0,0.0,87,0.00,SCT,SCT,0.02,0.0,WeatherDisplay:10.37,2013-09-20 00:50:00,
2013-09-19 20:55:00,66.3,62.3,30.08,SSW,200,0.0,0.0,87,0.00,SCT,SCT,0.02,0.0,WeatherDisplay:10.37,2013-09-20 00:55:00,
2013-09-19 21:05:00,65.9,61.9,30.08,SSW,200,0.0,0.0,87,0.00,SCT,SCT,0.02,0.0,WeatherDisplay:10.37,2013-09-20 01:05:00,
2013-09-19 21:10:00,65.6,61.6,30.08,SSW,200,0.0,0.0,87,0.00,SCT,SCT,0.02,0.0,WeatherDisplay:10.37,2013-09-20 01:10:00,
2013-09-19 21:15:00,65.4,61.4,30.08,SSW,200,0.0,0.0,87,0.00,SCT,SCT,0.02,0.0,WeatherDisplay:10.37,2013-09-20 01:15:00,
2013-09-19 21:20:00,65.2,61.2,30.08,SSW,200,0.0,0.0,87,0.00,SCT,SCT,0.02,0.0,WeatherDisplay:10.37,2013-09-20 01:20:00,
2013-09-19 21:25:00,65.0,61.0,30.08,SSW,200,0.0,0.0,87,0.00,SCT,SCT,0.02,0.0,WeatherDisplay:10.37,2013-09-20 01:25:00,
2013-09-19 21:35:00,64.5,60.6,30.08,SSW,200,0.0,0.0,87,0.00,SCT,SCT,0.02,0.0,WeatherDisplay:10.37,2013-09-20 01:35:00,
2013-09-19 21:40:00,64.3,60.3,30.08,SSW,200,0.0,0.0,87,0.00,SCT,SCT,0.02,0.0,WeatherDisplay:10.37,2013-09-20 01:40:00,
2013-09-19 21:45:00,64.0,60.4,30.08,SSW,200,0.0,0.0,88,0.00,SCT,SCT,0.02,0.0,WeatherDisplay:10.37,2013-09-20 01:45:00,
2013-09-19 21:50:00,63.8,60.2,30.08,SSW,200,0.0,0.0,88,0.00,SCT,SCT,0.02,0.0,WeatherDisplay:10.37,2013-09-20 01:50:00,
2013-09-19 21:55:00,63.6,60.0,30.08,SSW,200,0.0,0.0,88,0.00,SCT,SCT,0.02,0.0,WeatherDisplay:10.37,2013-09-20 01:55:00,
2013-09-19 22:00:00,63.5,59.9,30.08,SSW,200,0.0,0.0,88,0.00,SCT,SCT,0.02,0.0,WeatherDisplay:10.37,2013-09-20 02:00:00,
2013-09-19 22:05:00,63.4,59.8,30.08,SSW,200,0.0,0.0,88,0.00,SCT,SCT,0.02,0.0,WeatherDisplay:10.37,2013-09-20 02:05:00,
2013-09-19 22:10:00,63.2,59.9,30.08,SSW,200,0.0,0.0,89,0.00,SCT,SCT,0.02,0.0,WeatherDisplay:10.37,2013-09-20 02:10:00,
2013-09-19 22:15:00,63.1,59.8,30.08,SSW,200,0.0,0.0,89,0.00,SCT,SCT,0.02,0.0,WeatherDisplay:10.37,2013-09-20 02:15:00,
2013-09-19 22:20:00,63.0,59.7,30.08,SSW,200,0.0,0.0,89,0.00,SCT,SCT,0.02,0.0,WeatherDisplay:10.37,2013-09-20 02:20:00,
2013-09-19 22:25:00,62.8,59.5,30.08,SSW,200,0.0,0.0,89,0.00,SCT,SCT,0.02,0.0,WeatherDisplay:10.37,2013-09-20 02:25:00,
2013-09-19 22:30:00,62.7,59.4,30.08,SSW,200,0.0,0.0,89,0.00,SCT,SCT,0.02,0.0,WeatherDisplay:10.37,2013-09-20 02:30:00,
2013-09-19 22:35:00,62.6,59.3,30.08,SSW,200,0.0,0.0,89,0.00,SCT,SCT,0.02,0.0,WeatherDisplay:10.37,2013-09-20 02:35:00,
2013-09-19 22:40:00,62.5,59.2,30.08,SSW,200,0.0,0.0,89,0.00,SCT,SCT,0.02,0.0,WeatherDisplay:10.37,2013-09-20 02:40:00,
2013-09-19 22:45:00,62.4,59.1,30.08,SSW,200,0.0,0.0,89,0.00,SCT,SCT,0.02,0.0,WeatherDisplay:10.37,2013-09-20 02:45:00,
2013-09-19 22:50:00,62.3,59.0,30.08,SSW,200,0.0,0.0,89,0.00,SCT,SCT,0.02,0.0,WeatherDisplay:10.37,2013-09-20 02:50:00,
2013-09-19 22:55:00,62.2,58.9,30.08,SSW,200,0.0,0.0,89,0.00,SCT,SCT,0.02,0.0,WeatherDisplay:10.37,2013-09-20 02:55:00,
2013-09-19 23:00:00,62.1,59.1,30.08,SSW,200,0.0,0.0,90,0.00,SCT,SCT,0.02,0.0,WeatherDisplay:10.37,2013-09-20 03:00:00,
2013-09-19 23:05:00,62.0,58.7,30.08,SSW,200,0.0,0.0,89,0.00,SCT,SCT,0.02,0.0,WeatherDisplay:10.37,2013-09-20 03:05:00,
2013-09-19 23:10:00,62.0,59.0,30.08,SSW,199,0.0,0.0,90,0.00,SCT,SCT,0.02,0.0,WeatherDisplay:10.37,2013-09-20 03:10:00,
2013-09-19 23:15:00,61.9,58.9,30.08,SSW,200,0.0,0.0,90,0.00,SCT,SCT,0.02,0.0,WeatherDisplay:10.37,2013-09-20 03:15:00,
2013-09-19 23:20:00,61.9,58.9,30.08,SSW,200,0.0,1.0,90,0.00,SCT,SCT,0.02,0.0,WeatherDisplay:10.37,2013-09-20 03:20:00,
2013-09-19 23:25:00,61.9,58.9,30.08,SSW,200,0.0,0.0,90,0.00,SCT,SCT,0.02,0.0,WeatherDisplay:10.37,2013-09-20 03:25:00,
2013-09-19 23:30:00,61.8,58.8,30.08,SSW,200,0.0,0.0,90,0.00,SCT,SCT,0.02,0.0,WeatherDisplay:10.37,2013-09-20 03:30:00,
2013-09-19 23:35:00,61.8,58.8,30.07,SSW,200,0.0,0.0,90,0.00,SCT,SCT,0.02,0.0,WeatherDisplay:10.37,2013-09-20 03:35:00,
2013-09-19 23:40:00,61.7,59.0,30.08,SSW,200,0.0,0.0,91,0.00,SCT,SCT,0.02,0.0,WeatherDisplay:10.37,2013-09-20 03:40:00,
2013-09-19 23:45:00,61.6,59.0,30.08,SSW,200,0.0,0.0,91,0.00,SCT,SCT,0.02,0.0,WeatherDisplay:10.37,2013-09-20 03:45:00,
2013-09-19 23:50:00,61.6,58.6,30.08,SSW,200,0.0,0.0,90,0.00,SCT,SCT,0.02,0.0,WeatherDisplay:10.37,2013-09-20 03:50:00,
2013-09-19 23:55:00,61.5,58.5,30.08,SSW,200,0.0,0.0,90,0.00,SCT,SCT,0.02,0.0,WeatherDisplay:10.37,2013-09-20 03:55:00,